This is the latest recevied weather packets stored in our database for station/object IK2ILW-4. If no packets are shown the sender has not sent any weather packets the latest 10 day(s).
| Time | Temp. | Humidity | Pressure | Rain* | Wind** | Luminosity | Snow |
|---|---|---|---|---|---|---|---|
| 1777820264 | 13.33° C | 45% | 1020.9 hPa | 0 mm | - | 144 W/m² | - |
| 1777819960 | 13.89° C | 44% | 1020.9 hPa | 0 mm | - | 153 W/m² | - |
| 1777819659 | 13.89° C | 43% | 1020.9 hPa | 0 mm | - | 199 W/m² | - |
| 1777819359 | 14.44° C | 42% | 1021.1 hPa | 0 mm | - | 352 W/m² | - |
| 1777819060 | 14.44° C | 41% | 1021.1 hPa | 0 mm | - | 355 W/m² | - |
| 1777818760 | 14.44° C | 43% | 1021.1 hPa | 0 mm | - | 439 W/m² | - |
| 1777818459 | 13.89° C | 45% | 1021.3 hPa | 0 mm | - | 371 W/m² | - |
| 1777818156 | 14.44° C | 46% | 1021.3 hPa | 0 mm | - | 350 W/m² | - |
| 1777817855 | 13.89° C | 47% | 1021.3 hPa | 0 mm | - | 373 W/m² | - |
| 1777817555 | 14.44° C | 45% | 1021.3 hPa | 0 mm | - | 387 W/m² | - |
| 1777817270 | 14.44° C | 48% | 1021.3 hPa | 0 mm | - | 446 W/m² | - |
| 1777816966 | 14.44° C | 48% | 1021.3 hPa | 0 mm | - | 715 W/m² | - |
| 1777816668 | 14.44° C | 50% | 1021.4 hPa | 0 mm | - | 401 W/m² | - |
| 1777816367 | 14.44° C | 47% | 1021.4 hPa | 0 mm | - | 323 W/m² | - |
| 1777816062 | 14.44° C | 50% | 1021.4 hPa | 0 mm | - | 469 W/m² | - |
| 1777815758 | 14.44° C | 49% | 1021.3 hPa | 0 mm | - | 450 W/m² | - |
| 1777815457 | 15° C | 47% | 1021.3 hPa | 0 mm | - | 336 W/m² | - |
| 1777815173 | 15.56° C | 48% | 1021.3 hPa | 0 mm | - | 322 W/m² | - |
| 1777814868 | 15.56° C | 47% | 1021.3 hPa | 0 mm | - | 904 W/m² | - |
| 1777814563 | 15.56° C | 50% | 1021.3 hPa | 0 mm | - | 715 W/m² | - |
| 1777814259 | 15.56° C | 49% | 1021.3 hPa | 0 mm | - | 738 W/m² | - |
| 1777813958 | 15.56° C | 48% | 1021.2 hPa | 0 mm | - | 788 W/m² | - |
| 1777813653 | 16.11° C | 48% | 1021.2 hPa | 0 mm | - | 773 W/m² | - |
| 1777813372 | 15.56° C | 47% | 1021.2 hPa | 0 mm | - | 737 W/m² | - |
| 1777813068 | 16.11° C | 46% | 1021.1 hPa | 0 mm | - | 744 W/m² | - |
* Rain since midnight (hover to see other rain measurements)
** Current wind speed in m/s (hover to see current wind gust speed)